Regional Weather Roundup
Issued by NWS Wakefield, VA

Home | Current Version | Previous Version | Text Only | Print | Product List | Glossary Off
Versions: 1 2 3 4 5 6 7 8 9 10 11 12 13 14 15 16 17 18 19 20 21 22 23 24 25 26 27 28 29 30 31 32 33 34 35 36 37 38 39 40 41 42 43 44 45 46 47 48 49 50

894
ASUS41 KAKQ 300615
RWRAKQ

REGIONAL WEATHER ROUNDUP
NATIONAL WEATHER SERVICE WAKEFIELD VA
200 AM EDT SUN APR 30 2017

Note: "fair" indicates few or no clouds below 12,000 feet with no
significant weather and/or obstructions to visibility. * = Denotes
station may not report precipitation (e.g., rain,snow,etc.),
thunder or fog.

VAZ042-051-052>054-056-300700-
NORTHERN VIRGINIA

CITY           SKY/WX    TMP DP  RH WIND       PRES   REMARKS
WASH NATIONAL  PTCLDY    75  72  90 S8        30.07S
DULLES         PTCLDY    75  70  84 S6        30.06F
FORT BELVOIR   CLEAR     70  68  94 CALM      30.07S FOG
QUANTICO       CLEAR     73  71  93 S6        30.07S
FREDERICKSBRG* PTCLDY    75  72  88 SW7       30.07S
STAFFORD*      CLEAR     73  72  95 CALM      30.11S
WARRENTON      CLEAR     76  69  78 S6        30.07S
CULPEPER*      CLEAR     75  72  88 S5        30.08S
MANASSAS*        N/A     74  71  91 S5        30.07S
LEESBURG*      PTCLDY    72  72 100 CALM      30.08S
WINCHESTER     MOCLDY    64  63  94 SW3       30.08S
FRONT ROYAL*   PTCLDY    68  68 100 CALM      30.07R
LURAY*         PTCLDY    70  68  94 S6        30.09S
$$

VAZ048-049-060>072-079>083-300700-
CENTRAL AND SOUTH CENTRAL VIRGINIA

CITY           SKY/WX    TMP DP  RH WIND       PRES   REMARKS
RICHMOND       PTCLDY    72  70  93 S7        30.10F
CHESTERFIELD*  FAIR     N/A N/A N/A S3        30.11F
PETERSBURG*    CLEAR     71  67  88 S5        30.12F
HANOVER        CLEAR     75  68  78 S5        30.11F
TAPPAHANNOCK*  CLEAR     74  74  97 S5        30.10F
QUINTON*       FAIR      74  73  97 S8G18     30.10F
CHARLOTTSVILLE PTCLDY    75  70  84 S6        30.08F
GORDONSVILLE*  CLEAR     73  71  95 SW3       30.08S
ORANGE*        CLEAR     70  68  94 CALM      30.09S
LOUISA*        CLEAR     77  73  88 S5        30.08F
BUMPASS*       FAIR      73  72  95 S3        30.09F
FARMVILLE*     CLEAR     72  71  97 S6        30.10S
CREWE*         FAIR      73  73 100 S3        30.12S
FORT PICKETT*  NOT AVBL
CHASE CITY*    FAIR      73  72  95 S3        30.14S
CLARKSVILLE*   FAIR      72  72 100 S7        30.13F
SOUTH HILL*    CLEAR     72  71  96 S8        30.19F
LAWRENCEVILLE* FAIR      73  70  91 S6        30.13S
EMPORIA*       CLEAR     72  70  94 CALM      30.15S
$$

VAZ088>098-300700-
SOUTHEAST VIRGINIA

CITY           SKY/WX    TMP DP  RH WIND       PRES   REMARKS
NORFOLK        CLEAR     76  71  85 SW12      30.13R
VIRGINIA BEACH CLEAR     74  69  85 SW10      30.12S
NORFOLK NAVAL  CLEAR     76  71  85 SW6       30.14R
WEST POINT*    CLEAR     73  69  88 SE3       30.12F
SALUDA*        FAIR      75  72  89 S5        30.10F
NEWPORT NEWS   CLEAR     75  70  84 SW10      30.12S
LANGLEY AFB    CLEAR     76  72  86 SW13      30.11S
FORT EUSTIS    CLEAR     75  71  86 S5        30.10S
WILLIAMSBURG*  CLEAR     75  72  88 CALM      30.12F
HR EXEC AP*    FAIR      73  68  83 SW8       30.11F
FRANKLIN*      CLEAR     73  69  87 SW8       30.14S
US460-WAKEFLD  CLEAR     74  70  87 VRB6      30.12F
$$

VAZ020-022-025-037-045-300700-
WEST CENTRAL AND SOUTHWEST VIRGINIA

CITY           SKY/WX    TMP DP  RH WIND       PRES   REMARKS
STAUNTON*      MOCLDY    68  66  93 CALM      30.13S
WAYNESBORO*    PTCLDY    72  69  89 SW3       30.12F
HOT SPRINGS VA PTCLDY    66  59  77 S8        30.23F
LYNCHBURG      CLEAR     70  68  93 S5        30.14S
DANVILLE       MOCLDY    71  68  90 VRB3      30.14R
SOUTH BOSTON*  FAIR      71  70  96 S3        30.14R
MARTINSVILLE   FOG       65  64  97 CALM      30.17S VSB 1/2
ROANOKE        PTCLDY    74  67  78 CALM      30.14F
BLACKSBURG     PTCLDY    69  65  84 W3        30.21S
DUBLIN*        PTCLDY    71  62  71 W3        30.19R
MARION*        CLOUDY    69  63  83 CALM      30.21S
HILLSVILLE*    CLOUDY    68  66  93 CALM      30.19F
RICHLANDS*     FAIR      71  59  65 SW3       30.16F
WISE*          CLOUDY    72  59  64 S9        30.15F
ABINGDON*      MOCLDY    72  60  66 CALM      30.14F
$$

MDZ021>025-VAZ099-100-300700-
SOUTHERN MARYLAND AND THE DELMARVA PENINSULA

CITY           SKY/WX    TMP DP  RH WIND       PRES   REMARKS
PATUXENT RIVER CLEAR     77  73  87 SW13      30.07F
BAY BRIDGE APT CLEAR     73  70  88 S5        30.07S
LEONARDTOWN    CLEAR     75  70  83 SW9       30.09F
DOVER          PTCLDY    73  73 100 S3        30.07S
GEORGETOWN     CLEAR     76  71  85 SW3       30.08S
EASTON         CLEAR     75  70  85 CALM      30.11S
CAMBRIDGE        N/A     77  72  83 VRB3      30.07F
SALISBURY      CLEAR     73  72  96 SW6       30.08F
OCEAN CITY     CLEAR     75  71  87 SW9       30.09F
WALLOPS ISLAND CLEAR     75  72  90 SW6       30.10S
ACCOMACK*      CLEAR     75  71  86 S6        30.10F
$$

NCZ012>017-030>032-300700-
NORTH CENTRAL AND EASTERN NORTH CAROLINA

CITY           SKY/WX    TMP DP  RH WIND       PRES   REMARKS
ROANOKE RAPIDS FAIR      72  70  94 S9        30.15
RALEIGH        MOCLDY    74  70  87 SW9       30.16F
ELIZABETH CITY CLEAR     72  70  93 SW15      30.15R
AHOSKIE*         N/A     72  69  91 S6        30.15F
EDENTON*       CLEAR     73  69  87 SW12G17   30.17S
CURRITUCK*     CLEAR     73  73  98 SW9       30.16R
KILL DEVIL HLS CLEAR     72  68  87 SW9       30.14F
MANTEO         CLEAR     72  69  90 W14       30.16F
CAPE HATTERAS  CLEAR     73  70  90 SW9       30.20S FOG
TARBORO*       NOT AVBL
GOLDSBORO      PTCLDY    72  72 100 SW6       30.16F
WASHINGTON     CLOUDY    71  69  93 SW6       30.18F
GREENVILLE     PTCLDY    72  70  94 SW7       30.18F
NEW BERN       MOCLDY    70  70 100 S3        30.20S
WILMINGTON     PTCLDY    73  71  93 S7        30.19F
$$

VAZ048-300700-
ELSEWHERE

CITY           SKY/WX    TMP DP  RH WIND       PRES   REMARKS
HARRISBURG PA  CLEAR     68  59  73 CALM      30.12R
BALTIMORE      PTCLDY    70  67  90 CALM      30.07R
ANNAPOLIS      CLEAR     69  69 100 SE3       30.06R
ANDREWS AFB    CLEAR     75  70  85 SW7       30.07S
PHILADELPHIA   PTCLDY    71  58  63 N9        30.12R
HENDERSON NC   PTCLDY    69  67  92 S8        30.15F
GREENSBORO     CLOUDY    71  68  90 S8        30.14F
ROCKY MOUNT    PTCLDY    72  70  93 S8        30.16F
$$

VAZ100-300700-
MARINE

STATION/POSITION TIME  TEMP    WIND        PRES    WAVE   SWELL
                       AIR SEA DIR/SP/G            HT/PER HT/PER
                 (UTC) (F)     (DEG/KT/KT) (MB)    (FT/S) (FT/S)
CAPE MAY NJ      0548   67 60   40/  1/  1 1018.3F
LEWES DE         0542   75 61  270/  3/  3 1018.5R
15NM E FENWICK I 0550   61 57  210/ 10/ 10 1019.2R   3/ 6   3/ 6
OCEAN-CITY-INLET 0542   66 53  230/  5/  7 1019.1F
WACHAPREAGUE VA  0542   73 73  220/  5/  6 1019.0F
THOMAS POINT MD  0600   72 60  170/  9/ 10   N/A
GOOSES REEF MD   0600   68 59  150/  6/  6 1019.0    0
COVE POINT MD    0542   78     240/ 10/ 13 1018.8F
SOLOMONS ISLAND  0542   75 64  230/ 15/ 19   N/A
BISHOPS HEAD MD  0542   73 74  190/ 10/ 12 1019.0F
PINEY POINT MD   0548          240/  8/ 11   N/A
POTOMAC MD       0600   73 68  220/  8/ 12 1017.6    1
CAMBRIDGE MD     0542   76 69                N/A
LEWISETTA VA     0542   78 72  240/ 12/ 13 1018.4F
RAPPAHANNOCK LGT 0548          190/ 15/ 16 1020.1F
STINGRAY PT      0600   68 66  180/  8/ 10 1019.4    0
YORK RVR RNG VA  0542   74     230/ 13/ 15 1018.9F
YORKTOWN VA      0542   77 67  230/ 12/ 18 1019.1F
JAMESTOWN VA     0600   76 72  180/  4/  6   N/A     0
DOMINION TERM VA 0542   74     240/  9/ 12 1020.3R
KIPTOPEKE VA     0548      66  170/  7/  7   N/A
CHES BAY BRIDGE  0542   75 64  240/ 13/ 14 1019.9R
CAPE HENRY VA    0542   76     220/  8/ 14   N/A
WILLOUBY STN VA  0542   75     220/ 14/ 15 1021.1R
S CRANEY ISL VA  0542   76     210/  6/ 10 1020.2R
CAPE HENRY BUOY  0542      64                N/A     2/ 5
1ST LANDING BUOY 0600   71 65              1020.1    1/ 3
CAPE CHARLES BUO 0551      62                N/A     2/ 6
64NM E OF VA BCH 0550   62 58  210/  8/  8 1021.7F   4/ 6   3/ 6
DUCK PIER NC     0542   73 58  220/ 12/ 18 1020.6R
44100 DUCK FRF   0535      62                N/A     3/ 7
44056 DUCK FRF   0600      59                N/A     2/ 7
OREGON INLET NC  0542   74 78  220/ 19/ 22 1021.0F
HATTERAS NC      0542   72 74  220/  7/ 12 1022.4S
DIAMOND SHLS NC  0550   76 74  220/ 16/ 17 1022.4F   3/ 7   2/ 7
CAPE LOOKOUT NC  0600   72     210/  6/  7 1022.4S
$$




USA.gov is the U.S. government's official web portal to all federal, state and local government web resources and services.